Wind_Speed
7 7 7 7 7 6 6 6 7 8 9 10 11 12 12 12 12 11 12 12 12 13 12 12 11 10 9 9 9 9 9 9 8 8 9 9 9 10 11 11 12 13 13 14 14 15 15 15 15 16 16 16 16 17 18 18 19 20 21 20 21 24 27 27 27 28 29 30 31 30 29 29 31 33 35 36 36 36 37 38 39 40 40 41 42 43 44 44
7 7 7 7 7 7 7 7 7 7 8 8 9 9 10 10 10 10 11 11 11 12 12 12 11 11 10 9 9 10 10 11 11 12 12 12 12 13 13 14 14 15 16 16 17 17 18 18 18 19 19 19 19 20 21 21 22 23 22 22 24 27 28 28 28 28 29 32 35 33 31 30 33 35 36 37 38 38 39 39 40 41 42 42 43 44 45 46
8 8 7 8 9 10 10 9 8 8 8 8 8 8 9 9 10 11 11 11 11 12 12 12 13 13 12 11 11 11 11 12 12 13 14 14 15 15 15 15 16 17 17 18 18 18 19 20 20 21 21 21 21 23 23 23 24 25 24 24 26 28 29 29 28 28 30 34 36 36 34 33 35 37 37 39 40 40 41 41 41 41 42 43 43 44 45 46
9 9 9 9 10 12 12 12 11 10 9 9 9 8 9 9 10 10 11 11 11 12 12 13 14 14 14 14 14 14 14 15 15 15 16 16 16 17 17 17 18 18 19 19 20 20 20 21 21 22 23 23 22 23 25 24 25 26 26 26 28 29 29 29 29 30 32 35 37 37 36 35 35 37 38 40 41 41 42 42 42 42 42 42 43 44 44 45
9 10 10 11 12 13 13 13 12 11 10 9 9 9 9 9 9 10 10 11 11 12 12 13 13 14 14 14 14 15 15 16 17 17 17 17 18 19 19 20 20 21 21 22 22 22 23 23 23 24 24 25 24 24 25 25 26 27 27 27 28 30 29 29 31 32 33 35 36 37 37 36 36 36 37 39 41 42 42 43 44 44 43 43 43 44 45 45
10 11 11 12 13 13 14 14 13 12 11 10 10 9 10 10 10 11 11 11 12 12 13 13 14 14 14 14 15 15 16 16 16 17 17 18 18 19 19 20 21 21 22 23 23 23 24 24 25 25 25 26 26 25 26 25 26 28 29 29 29 29 30 31 32 34 35 35 36 37 37 37 37 37 38 38 40 41 42 43 44 45 45 45 45 45 46 47
10 11 12 13 13 14 14 14 13 12 11 11 11 11 11 11 11 12 12 13 13 14 14 14 14 14 14 14 15 15 15 15 16 16 17 18 18 19 19 20 21 21 22 23 24 24 25 25 25 25 26 27 27 27 27 26 26 27 29 31 30 29 30 33 35 35 36 37 37 37 38 38 38 39 39 39 40 41 42 43 44 45 46 46 46 47 47 48
11 12 13 13 14 15 15 14 13 12 11 11 12 12 13 13 13 13 14 14 14 14 14 13 13 13 12 12 12 13 13 14 15 16 16 17 18 18 19 20 20 21 22 23 24 24 25 26 26 26 26 27 28 28 29 28 27 27 29 31 30 30 32 34 37 37 36 37 37 38 39 39 40 40 40 40 40 41 42 43 44 46 46 47 48 48 49 49
12 13 13 14 14 15 14 13 12 11 12 12 12 13 13 14 14 14 14 14 13 13 12 12 11 11 11 11 11 12 12 13 14 15 16 17 17 18 19 20 21 21 22 22 23 24 25 25 26 26 26 26 27 28 28 29 29 28 29 31 31 32 33 35 37 37 37 37 38 39 40 40 40 40 41 41 41 42 42 43 44 46 47 48 49 50 50 51
13 14 14 15 15 14 13 11 11 11 12 12 13 13 13 13 12 12 12 11 11 11 11 11 11 11 11 11 11 12 13 14 14 15 16 17 18 19 19 20 21 22 22 23 23 24 25 25 26 26 26 26 27 27 27 28 29 29 29 31 33 34 35 36 36 36 37 38 38 39 39 39 40 40 41 41 42 43 44 44 45 46 47 48 49 50 51 52
14 15 15 15 14 13 11 10 10 11 11 12 12 13 13 12 10 9 9 10 10 11 11 11 11 12 12 13 13 13 14 15 16 17 18 19 19 20 20 20 21 21 22 23 23 24 24 25 25 26 26 26 26 26 26 27 28 29 30 32 34 34 36 36 36 36 36 37 38 38 39 39 39 39 40 42 44 44 45 45 46 47 47 48 50 51 52 53
15 15 15 14 12 10 9 10 10 11 11 10 10 11 12 12 11 10 10 11 11 12 13 13 14 14 15 15 16 16 17 17 18 19 19 19 19 19 19 19 20 20 20 21 22 23 23 24 24 25 26 26 26 25 25 26 27 28 30 33 34 34 36 36 36 36 36 37 38 38 39 39 39 39 40 41 43 44 45 46 47 48 49 50 50 51 52 53
16 15 14 13 10 9 9 9 10 10 9 9 9 10 11 11 11 11 12 12 13 14 15 15 16 16 17 18 18 18 18 17 17 16 16 15 15 15 15 16 16 17 17 19 20 21 22 23 24 25 25 25 25 25 25 26 27 28 31 33 34 34 35 35 35 36 36 36 37 38 40 40 40 40 40 42 43 45 46 47 48 49 50 51 51 51 52 53
15 14 13 10 8 8 8 9 9 8 8 8 9 9 10 11 11 12 12 13 14 15 16 17 17 18 19 18 18 17 16 15 13 12 12 13 13 12 13 13 13 14 15 16 17 18 19 21 22 23 23 23 23 25 26 27 28 29 31 33 33 33 34 35 35 36 36 37 37 38 40 40 41 41 42 43 44 45 46 47 48 49 49 50 50 50 51 51
14 12 10 8 7 8 8 9 8 8 8 8 9 10 11 12 13 14 14 15 16 16 17 17 17 16 16 15 14 13 13 13 12 12 12 12 13 14 14 14 14 15 15 16 16 17 17 18 19 20 20 21 22 24 26 27 28 28 30 33 33 34 35 36 36 36 37 37 37 38 40 40 41 41 42 43 44 44 45 46 46 47 47 48 48 49 50 50
12 9 7 6 7 8 8 8 7 8 8 9 10 12 13 14 15 16 16 17 17 16 15 14 13 12 10 10 10 10 11 11 12 12 12 13 13 14 15 16 16 17 17 17 17 18 18 18 18 18 18 19 20 22 24 25 26 26 28 31 32 32 33 34 35 35 36 36 37 38 40 41 41 42 42 43 44 44 44 45 45 46 46 47 48 49 49 50
8 6 6 6 7 7 7 7 7 8 10 11 12 13 15 16 17 17 17 17 15 14 12 10 9 8 8 8 8 9 10 11 11 12 13 14 14 15 16 17 18 18 19 19 19 19 19 19 20 20 19 20 20 21 24 25 26 26 27 29 31 32 33 34 34 34 35 36 37 37 39 40 41 41 42 42 43 43 44 44 45 46 47 48 49 49 50 51
4 4 5 6 6 6 6 7 8 9 11 13 14 15 16 16 16 15 14 12 11 10 9 8 8 8 8 9 9 10 11 13 14 15 15 16 17 18 19 19 19 19 19 19 19 20 21 21 21 22 22 22 22 22 24 25 26 27 28 29 31 32 33 34 34 34 35 35 36 36 37 39 39 40 41 42 42 42 43 44 45 46 47 49 49 50 51 51
3 4 4 5 5 6 7 8 10 11 12 14 15 16 15 14 12 11 10 9 8 8 8 7 7 8 8 9 10 11 12 14 16 17 18 19 19 20 20 19 19 19 18 18 19 20 21 21 22 22 23 23 23 23 24 25 25 26 27 28 29 31 32 33 34 35 35 36 36 37 38 39 40 40 41 42 43 44 44 45 46 47 47 48 48 48 49 49
3 4 4 5 5 7 8 10 12 13 13 13 13 12 11 11 10 9 9 8 8 8 8 7 8 9 9 10 12 12 13 16 18 18 19 19 19 18 18 18 18 17 17 17 17 18 19 19 20 21 22 22 23 23 24 24 25 26 27 28 29 31 33 34 34 35 36 37 38 39 40 41 41 42 43 43 44 44 45 45 45 45 45 45 45 45 45 46
3 4 4 5 7 9 10 11 12 12 12 10 9 9 9 10 9 9 8 8 8 8 8 8 9 10 10 12 14 14 15 16 17 16 16 16 16 16 16 17 17 17 17 18 18 19 20 20 21 22 22 23 24 24 25 25 26 27 28 29 30 32 34 36 37 37 38 39 39 40 41 42 42 43 43 43 42 42 42 41 41 41 41 41 41 42 43 43
4 4 5 7 8 10 11 11 11 10 9 8 8 8 9 9 8 8 7 7 8 8 8 9 11 11 12 14 15 15 15 15 14 14 15 16 16 17 18 19 20 20 20 21 21 22 22 23 24 24 25 26 27 27 27 28 28 29 30 31 32 34 36 38 39 39 39 40 40 41 41 41 41 41 40 40 39 39 38 37 37 37 37 38 39 41 42 43
4 5 7 8 9 10 10 9 8 8 8 8 8 8 7 7 7 7 7 7 8 9 8 10 12 12 12 13 13 13 13 14 14 16 17 18 19 21 22 23 23 24 24 24 24 25 25 25 26 26 27 28 28 29 29 29 30 30 31 32 33 34 36 38 39 39 39 40 40 40 38 37 37 37 36 36 35 35 35 35 36 37 38 39 40 42 43 45
5 7 8 9 8 8 7 6 7 7 7 8 7 7 7 6 7 7 7 8 10 9 9 11 12 11 11 12 12 12 13 15 17 18 20 21 22 23 24 25 25 26 26 26 26 26 26 26 26 26 26 27 28 28 29 30 30 31 32 32 33 35 36 37 38 38 38 38 39 38 35 33 32 31 31 32 33 34 35 36 38 39 41 42 44 45 46 46
6 7 8 7 6 5 5 5 6 6 6 7 7 7 7 8 8 8 8 9 10 9 9 10 10 10 11 11 13 14 15 17 19 21 22 24 24 25 25 25 26 26 25 25 25 25 26 25 25 25 25 26 27 28 29 30 30 32 33 34 34 35 36 36 37 37 37 36 36 35 33 30 28 27 28 30 32 34 36 38 40 42 43 44 45 46 46 47
6 6 6 5 4 5 5 5 6 6 6 6 7 8 9 9 9 8 8 9 9 9 8 9 9 10 11 13 15 16 18 20 22 23 23 24 25 25 25 25 24 24 24 24 24 24 24 24 24 25 26 27 28 28 29 30 31 32 33 33 33 34 34 33 34 34 33 33 32 31 30 30 28 28 29 31 33 34 36 38 40 41 41 42 43 43 44 45
5 4 4 4 5 5 5 6 6 6 7 7 8 9 9 9 8 7 7 7 8 9 9 9 10 12 13 15 17 19 20 21 23 23 24 24 24 24 24 24 24 24 24 23 24 24 24 25 26 27 29 29 30 30 31 31 32 32 32 31 31 30 29 28 27 28 28 28 29 28 29 30 29 30 31 32 34 35 37 37 38 38 39 40 42 43 45 47
4 4 5 5 6 6 6 6 6 7 8 8 8 8 8 8 7 7 7 7 8 9 10 10 12 14 16 17 19 20 21 22 23 23 23 23 23 23 24 24 23 23 24 24 25 26 27 28 29 30 31 31 31 31 31 31 31 30 30 29 27 26 25 23 23 24 25 26 27 27 29 30 30 30 32 33 34 35 35 35 36 38 40 42 45 47 48 50
5 5 6 6 6 6 6 7 7 8 8 8 7 7 7 8 9 8 8 8 9 10 11 12 14 16 18 19 20 20 21 21 22 22 22 22 23 23 23 23 23 23 24 25 27 28 28 29 30 31 31 31 31 31 30 29 28 27 26 25 23 22 22 22 22 22 23 25 26 27 28 31 31 30 31 32 32 33 34 36 38 40 43 45 48 50 51 53
6 6 6 6 6 6 7 7 7 7 7 7 8 8 9 9 9 9 10 10 10 12 14 15 16 17 19 20 20 20 21 21 22 22 22 22 22 23 23 24 24 24 25 27 28 30 31 32 33 32 31 31 30 29 27 26 24 22 21 20 20 20 20 21 22 21 22 24 26 27 28 30 31 29 29 31 32 33 36 39 41 43 45 48 50 51 53 54
6 6 6 6 6 7 7 7 7 7 8 9 9 9 9 9 9 10 11 12 12 14 16 17 18 19 19 20 20 21 22 22 23 23 23 24 24 24 24 25 25 26 27 28 30 31 33 33 33 32 32 30 28 26 24 22 21 19 18 18 18 19 20 20 21 22 23 24 26 27 27 27 29 30 31 33 35 37 39 42 44 46 47 49 51 53 54 56
5 6 6 7 7 7 7 8 8 9 9 9 9 9 9 10 10 11 12 13 14 16 17 17 18 18 19 20 20 21 22 22 22 22 22 23 23 24 25 25 26 28 30 31 32 33 33 32 30 29 28 26 24 22 20 19 18 18 18 18 19 20 21 22 22 22 22 22 24 26 26 27 30 33 35 37 38 40 42 44 46 47 49 50 52 54 55 57
6 6 7 7 7 8 8 9 9 9 9 8 9 9 10 11 12 13 14 15 16 17 17 18 18 19 20 20 21 21 21 22 22 22 22 22 23 24 25 26 28 30 32 34 35 34 33 30 28 25 23 21 19 17 17 17 18 19 21 22 22 23 24 24 24 23 21 21 24 27 28 31 33 35 37 38 40 42 44 45 47 48 50 51 53 55 57 58
6 6 7 7 8 8 9 9 9 8 8 9 9 10 11 12 13 13 14 15 16 16 17 19 20 20 21 21 21 21 21 22 22 23 23 24 25 26 27 28 30 32 34 35 35 33 31 28 25 23 21 20 18 17 18 19 21 23 25 25 25 25 25 25 25 25 24 24 26 29 32 34 36 36 37 39 41 43 45 46 47 49 51 52 54 56 58 59
6 7 8 9 9 9 9 8 8 8 9 9 10 11 11 12 13 14 15 16 17 18 19 20 21 21 21 21 21 21 21 22 22 23 24 24 25 27 28 30 33 35 35 35 33 31 28 25 24 22 21 20 19 20 21 22 23 25 26 26 25 24 24 25 26 28 28 28 29 31 33 35 37 37 38 41 42 44 45 47 49 50 51 53 55 56 58 60
8 9 9 9 9 9 8 8 8 9 9 10 11 12 12 13 14 15 16 17 18 20 21 22 22 22 22 21 21 21 21 22 23 23 24 25 26 28 30 33 35 35 34 32 29 27 25 23 22 21 19 19 20 21 23 24 24 25 25 25 24 24 25 26 27 29 30 31 32 32 34 36 37 37 39 42 43 45 46 48 49 51 52 54 55 57 59 60
10 10 10 9 8 8 8 8 8 8 9 11 11 12 13 14 15 16 17 19 20 21 23 23 23 22 22 22 21 22 23 23 24 24 25 27 28 30 32 34 35 34 32 29 27 25 23 21 20 18 18 18 19 21 22 23 24 23 23 23 24 25 26 28 29 30 32 33 33 33 35 37 39 40 41 43 45 46 47 49 50 51 53 55 56 58 59 61
11 10 9 8 7 7 8 8 8 9 10 11 12 13 14 14 16 17 18 20 21 23 24 24 23 23 22 22 22 23 23 24 25 26 27 28 30 32 34 35 34 32 30 27 25 23 22 20 18 18 18 19 20 20 21 22 22 22 22 23 25 27 28 29 31 33 35 37 37 36 35 38 41 42 44 45 46 48 49 50 51 53 54 56 58 59 61 63
10 9 8 7 7 7 7 8 9 10 11 12 13 14 15 15 16 18 19 21 23 24 24 24 24 23 22 22 22 23 24 24 25 26 27 29 31 33 34 34 33 30 28 26 24 22 21 19 18 18 18 19 19 19 19 19 20 22 23 24 26 28 29 30 31 34 36 39 41 39 37 39 42 44 46 48 48 50 51 52 53 55 56 58 59 61 62 63
9 7 7 7 7 7 7 8 9 10 12 14 15 15 15 16 17 19 20 22 24 25 25 25 25 24 23 23 23 23 24 25 26 27 28 30 32 33 33 33 31 29 27 26 24 23 21 20 19 18 18 17 17 18 18 18 19 22 24 25 26 29 31 31 32 34 37 40 42 42 39 40 44 47 48 49 50 51 52 54 55 57 58 59 60 61 62 63
7 6 7 7 7 7 8 9 11 13 14 15 15 15 16 17 18 20 22 23 24 25 26 26 25 24 23 23 23 24 25 25 26 27 28 30 31 32 32 32 30 29 27 25 24 23 21 19 18 18 18 17 17 18 19 19 19 21 23 25 27 29 32 34 34 35 38 40 43 44 42 41 45 48 49 50 51 53 54 55 56 57 58 59 60 61 63 64
6 6 7 7 7 9 10 11 13 15 15 15 15 16 17 18 20 21 23 24 25 26 27 26 26 25 23 23 24 24 25 26 27 27 28 30 31 31 31 31 30 28 26 25 24 22 21 19 18 17 17 17 17 18 19 20 21 21 23 25 28 30 32 35 36 37 39 41 44 47 46 44 47 50 51 51 53 54 55 56 57 58 59 60 61 62 63 64
6 6 7 8 9 9 10 13 15 15 15 16 16 17 18 19 21 22 23 25 26 27 27 27 26 25 24 24 24 25 26 26 27 28 29 30 30 31 31 30 29 28 26 24 23 22 20 19 18 17 16 17 18 18 19 21 23 24 24 26 28 30 32 35 37 39 40 41 44 48 49 47 49 52 53 53 54 55 56 57 58 59 59 60 62 62 64 65
6 7 8 10 10 10 12 15 16 15 16 16 17 18 19 20 22 23 24 26 27 28 28 28 27 25 24 24 25 25 26 27 27 28 29 29 30 30 30 30 29 28 26 24 23 22 20 20 19 18 17 16 18 19 20 21 24 26 27 27 29 31 33 35 38 41 41 42 44 48 51 50 50 52 54 55 56 56 57 58 59 59 60 61 62 63 64 66
7 8 10 10 10 11 14 16 15 16 17 17 18 20 20 21 23 24 25 26 27 28 28 28 27 26 25 25 25 26 27 27 28 28 29 29 30 30 30 30 29 28 26 24 23 22 21 21 21 21 20 18 19 21 22 22 24 27 28 29 30 31 34 37 39 42 44 44 44 47 51 50 49 52 55 56 57 58 58 59 60 60 61 62 63 63 64 66
8 10 11 11 11 14 16 16 16 17 18 19 19 20 21 22 23 24 26 27 28 29 29 29 28 27 26 26 26 26 27 28 28 28 29 30 30 30 30 30 29 28 26 25 23 22 21 21 21 22 22 21 20 22 24 24 24 27 29 31 32 33 35 37 40 43 45 46 46 47 51 52 50 52 55 56 58 59 59 60 60 61 62 62 63 63 64 66
10 11 12 12 13 15 16 17 18 18 19 20 20 21 22 23 24 25 26 27 28 29 30 29 29 27 26 26 26 27 27 28 29 29 30 30 30 30 30 30 29 28 26 25 24 23 22 21 21 21 23 24 22 22 24 25 25 27 30 32 33 34 35 37 40 43 46 48 49 49 52 53 53 54 55 56 58 59 60 61 61 61 62 63 63 63 64 66
11 13 13 13 15 16 17 18 19 19 20 21 21 22 23 24 24 26 27 28 29 30 30 30 29 28 27 27 27 28 28 29 29 30 30 30 30 30 30 30 30 29 28 26 25 24 23 22 21 20 22 25 25 23 24 26 26 27 30 32 34 34 35 37 40 43 46 49 50 51 52 53 54 55 56 56 58 59 60 61 61 61 62 63 64 64 65 66
13 14 14 14 16 17 18 19 20 21 22 22 22 23 23 24 25 26 27 28 29 30 31 30 30 30 29 29 29 29 29 30 30 31 31 31 31 31 30 30 30 30 29 28 27 26 25 23 23 22 20 23 26 26 26 27 27 27 29 32 35 35 36 38 41 44 47 50 51 52 53 52 54 56 57 57 58 59 60 62 62 63 64 64 64 64 65 66
14 15 16 15 17 19 19 20 22 22 23 23 23 23 24 24 25 26 27 28 29 30 31 31 31 31 31 31 31 30 30 31 31 32 32 31 31 31 31 31 31 30 30 29 28 27 27 26 25 25 22 21 26 28 27 27 28 27 29 32 36 37 38 40 42 45 48 50 51 53 54 53 54 56 58 58 59 60 61 62 63 64 65 65 64 64 65 66
15 16 16 17 18 20 21 22 23 23 24 24 24 24 25 25 26 27 27 28 29 30 31 31 32 32 32 32 32 32 32 32 32 33 33 32 32 32 32 32 31 31 31 30 29 29 29 28 27 28 25 23 26 29 28 28 28 28 30 33 36 38 40 42 44 47 49 51 52 53 54 54 55 56 57 58 60 60 61 62 63 64 65 65 64 65 65 66
16 17 17 18 19 21 22 23 24 24 25 25 25 26 26 26 27 27 28 29 30 30 31 32 32 33 33 33 33 33 33 33 33 34 34 34 34 33 33 33 33 32 31 31 31 30 30 30 30 30 29 26 27 30 31 30 29 29 32 35 38 40 42 43 45 47 49 52 53 54 54 55 56 57 58 58 59 60 61 62 63 64 65 64 64 65 66 67
Wind_Direction
42 36 30 24 19 18 16 11 10 9 7 5 4 4 5 5 6 5 3 2 1 2 1 0 0 0 360 359 354 348 344 341 336 330 321 314 311 307 304 303 304 304 303 302 301 300 299 298 297 296 294 292 288 283 280 278 276 274 274 275 274 271 269 272 276 278 278 277 275 272 272 275 275 276 277 278 279 280 280 281 282 282 282 282 282 282 283 282
26 24 19 14 9 3 0 358 354 353 354 353 351 349 348 347 346 345 345 345 345 344 342 341 338 337 336 335 333 330 328 326 322 318 314 311 309 306 305 304 303 302 301 300 299 298 298 297 297 296 294 294 292 288 286 285 282 279 279 278 275 272 273 275 277 278 277 276 274 275 275 275 275 276 277 278 279 280 280 280 281 282 282 282 282 283 283 283
8 9 8 4 1 357 354 353 351 348 347 346 345 339 334 331 329 328 328 328 326 324 322 320 319 318 318 317 316 313 311 308 304 303 302 302 301 299 299 298 297 296 295 295 294 293 293 293 293 292 290 289 290 289 287 286 284 283 282 279 276 276 277 278 278 276 274 275 276 278 278 277 276 278 279 279 280 280 280 280 280 280 281 282 282 283 283 284
1 1 359 356 353 351 352 352 351 349 348 346 342 336 330 325 322 321 320 319 316 313 311 309 309 309 309 309 308 305 303 300 297 296 296 295 295 295 294 293 292 291 291 290 290 290 289 288 288 287 287 285 285 286 286 285 283 282 280 277 276 277 278 278 275 272 272 274 277 280 281 280 279 279 280 280 281 281 281 281 280 279 279 279 280 280 281 281
352 353 352 350 347 346 346 346 347 347 346 344 340 335 331 327 324 322 320 318 314 311 310 308 307 306 305 305 304 302 298 296 295 296 295 294 294 294 294 293 292 291 289 288 288 287 286 285 285 285 285 284 282 282 282 283 282 279 276 273 273 275 275 272 270 270 271 273 277 280 280 279 278 278 278 279 281 281 281 280 280 279 279 278 278 278 278 278
341 343 344 343 342 341 341 341 343 343 341 338 336 333 331 328 326 324 320 317 314 311 309 308 306 305 304 304 302 299 296 295 296 297 296 296 296 295 294 293 292 291 290 289 288 287 286 286 285 285 285 284 282 281 279 280 280 279 277 274 273 273 272 270 269 269 271 273 274 275 275 275 275 275 275 276 277 278 279 279 279 279 279 278 278 277 277 277
331 335 336 336 336 335 336 337 337 336 336 335 334 333 330 328 324 321 318 315 313 311 310 308 307 307 305 305 302 298 297 298 298 298 297 297 296 295 294 293 292 292 291 290 290 290 289 288 288 287 286 285 285 284 281 279 277 277 277 276 276 273 271 270 270 270 271 273 274 273 273 273 274 274 275 275 276 276 277 278 279 280 280 280 279 279 278 278
323 327 329 329 329 330 332 332 331 332 334 335 334 331 328 325 322 319 316 315 314 313 314 315 315 315 313 312 305 300 300 299 297 297 297 297 296 295 295 294 294 293 292 292 292 291 291 290 290 289 288 287 287 285 283 281 277 275 274 275 275 273 271 271 271 272 273 273 273 273 273 274 276 277 277 278 278 278 278 278 279 280 280 281 281 281 280 280
315 319 321 322 323 325 327 326 328 332 334 335 333 331 327 323 320 318 318 318 320 322 324 327 327 324 322 319 312 307 306 301 298 297 296 294 294 293 293 294 294 293 294 294 293 292 292 291 291 290 288 287 286 285 284 282 280 277 276 275 275 274 274 273 273 275 276 276 275 275 276 277 278 279 280 280 280 279 279 279 279 279 280 280 281 281 281 281
309 313 314 316 319 320 321 322 328 332 334 335 335 336 334 329 324 321 321 324 329 333 335 335 333 330 326 321 315 312 308 305 303 300 297 295 294 293 292 292 292 292 293 293 292 292 293 292 291 290 289 288 286 285 284 282 281 280 278 276 274 274 274 273 274 275 277 277 277 278 279 279 279 280 281 281 280 280 280 280 280 280 280 280 281 281 282 282
303 307 310 313 314 314 317 324 330 332 334 336 340 345 346 345 342 338 337 338 341 340 338 336 333 329 324 319 316 313 309 307 305 302 300 299 298 296 296 294 294 293 293 292 292 292 292 291 291 290 289 288 287 286 284 282 281 280 278 276 274 273 273 273 274 275 276 276 277 278 278 278 278 279 279 279 280 280 280 281 281 280 280 281 281 281 282 283
299 303 306 308 309 311 318 326 330 332 335 338 343 347 349 350 352 351 348 346 343 339 335 332 328 325 322 318 316 313 310 307 306 305 304 304 303 303 303 302 302 300 299 296 295 294 292 291 291 289 289 289 289 288 286 283 280 278 276 275 275 275 276 277 278 278 278 278 279 280 280 279 279 279 278 279 279 280 281 281 282 282 282 283 283 283 284 284
298 301 302 303 305 312 319 323 326 330 333 335 339 344 344 344 345 344 341 339 335 332 329 325 323 320 318 316 314 313 312 311 312 312 312 313 314 314 314 313 312 311 309 305 302 299 297 294 292 291 292 293 293 290 285 280 277 276 276 276 277 279 279 280 280 279 279 280 281 281 281 280 280 279 279 279 280 281 282 282 283 284 285 285 285 285 285 285
296 297 297 300 304 311 316 320 324 328 330 330 336 340 337 335 335 334 332 329 326 324 321 318 317 315 313 314 315 316 318 320 322 324 326 326 326 326 326 325 324 323 320 316 312 309 305 302 300 297 296 295 292 287 283 280 277 277 277 278 278 279 280 279 279 280 279 280 281 282 282 282 282 282 281 281 282 283 284 285 285 285 286 286 286 286 286 286
294 294 295 299 306 313 316 321 326 328 328 331 335 334 330 329 329 327 326 323 320 318 315 314 313 312 312 316 320 323 325 328 330 332 334 333 332 333 332 330 327 326 324 320 318 315 313 312 309 303 299 296 292 290 288 287 285 282 280 280 280 279 279 279 280 281 282 282 282 284 285 285 286 285 285 285 285 285 286 286 286 286 287 287 287 287 287 286
292 292 295 305 312 315 318 324 329 329 329 331 331 328 326 325 325 323 322 319 318 317 317 317 317 318 322 327 328 328 330 332 332 332 332 330 329 328 328 325 322 321 320 317 315 313 313 313 309 306 303 300 296 294 293 293 292 289 285 284 284 283 283 284 285 286 287 287 286 286 287 287 287 287 287 288 287 287 287 287 287 287 287 287 287 287 287 287
288 290 301 313 316 318 323 327 329 330 328 328 328 326 325 323 321 320 319 319 320 323 325 327 331 333 336 336 333 333 335 334 332 330 328 326 324 322 322 320 317 316 314 312 311 310 309 308 305 304 302 299 296 293 292 291 291 290 288 287 287 287 287 287 287 288 288 289 289 289 288 288 289 288 288 288 288 288 288 288 288 288 288 287 287 287 287 287
282 298 312 319 323 327 330 328 328 329 327 327 328 326 324 321 319 321 323 327 330 333 335 337 339 339 337 337 337 337 336 335 332 328 326 323 321 319 318 316 314 313 311 310 309 307 305 304 303 301 299 297 294 291 290 289 289 289 288 287 288 289 289 289 289 288 288 289 289 288 287 288 288 289 289 290 290 290 290 290 289 289 289 289 289 289 289 289
301 317 325 330 334 334 331 328 327 328 328 328 328 326 324 324 326 331 336 339 339 339 340 339 338 337 338 340 338 335 332 332 329 324 321 320 318 318 317 315 314 315 313 311 310 308 306 304 303 301 299 296 294 292 289 288 287 287 286 286 287 288 288 288 288 289 289 288 288 287 288 289 290 292 292 292 292 292 292 292 291 291 291 291 291 291 291 291
333 335 339 342 337 330 328 327 328 329 330 331 331 330 331 334 338 340 341 341 341 340 340 340 339 338 338 338 337 332 328 326 324 322 321 320 320 321 322 321 321 323 322 318 315 312 309 306 305 302 300 298 296 293 291 289 288 288 288 287 287 288 287 286 286 287 288 289 289 289 290 292 292 293 293 293 294 293 293 293 293 293 293 292 292 292 293 293
347 346 345 339 331 327 327 327 328 330 333 337 340 340 339 339 340 340 341 342 341 339 339 342 342 339 337 337 336 331 326 324 323 324 324 324 325 325 325 324 323 322 321 317 314 312 309 307 305 302 300 298 297 296 294 293 293 292 291 291 290 289 289 289 288 289 291 291 291 292 292 293 293 294 294 294 293 293 293 293 293 294 294 295 295 296 296 297
346 344 337 331 328 327 327 328 331 335 340 345 345 344 342 341 341 340 341 342 342 338 337 342 343 339 336 334 332 330 328 329 329 329 327 325 325 322 320 320 319 317 314 311 309 307 305 304 303 301 300 299 298 297 296 296 295 294 292 292 291 291 291 291 290 291 292 292 292 293 293 294 295 295 294 294 294 294 294 294 295 296 297 299 300 301 302 302
343 334 328 328 327 327 329 333 340 344 347 348 348 350 350 347 344 342 343 343 343 340 335 338 339 336 334 333 334 334 334 335 333 329 325 323 321 319 319 318 316 313 312 310 308 307 305 305 304 303 303 302 301 300 299 299 298 297 295 294 293 292 292 293 293 294 294 294 294 295 296 297 297 296 296 296 296 297 298 300 301 302 303 304 305 305 305 305
334 326 325 329 330 333 339 347 353 354 355 356 356 356 351 349 347 346 347 344 342 340 335 335 338 340 341 342 341 338 335 332 327 323 322 321 320 319 318 317 315 314 314 313 312 311 310 309 308 308 307 306 306 305 304 303 302 301 299 298 297 297 296 296 296 296 296 297 297 297 299 301 302 301 300 301 303 305 307 308 309 309 309 309 310 309 309 309
326 325 331 335 339 350 359 5 8 7 4 0 355 349 346 348 347 346 347 343 343 345 342 345 351 354 351 344 339 334 330 327 324 322 322 321 319 319 318 318 317 317 317 316 315 314 314 314 313 312 311 310 309 307 306 305 304 302 301 300 300 299 298 298 297 297 298 299 299 300 301 302 303 304 305 307 310 312 313 313 312 312 313 313 313 313 314 314
328 334 345 352 5 17 20 22 20 13 3 354 348 346 345 346 346 346 349 350 356 3 1 359 359 354 346 337 332 329 326 324 323 322 321 320 321 321 321 321 321 320 321 320 319 318 317 317 316 315 314 313 311 309 307 306 304 302 301 300 299 299 300 301 302 302 302 303 304 304 303 301 303 310 315 315 315 314 313 313 314 315 316 316 316 316 316 316
342 358 15 29 35 36 32 25 14 2 355 350 348 346 345 349 354 3 10 13 15 14 6 358 350 343 338 332 329 328 325 324 324 323 324 325 325 324 324 325 326 326 325 324 323 323 323 322 321 319 317 315 313 311 309 307 305 303 302 302 302 303 304 306 308 308 308 309 310 310 311 311 315 322 323 320 318 316 316 317 319 319 319 318 318 318 318 316
23 38 46 47 41 33 24 14 3 356 353 352 352 355 2 14 25 32 36 29 18 8 359 350 342 338 334 331 330 328 326 327 327 328 329 328 327 328 329 330 330 330 329 328 328 327 326 324 321 319 317 315 314 312 310 308 307 307 307 308 309 309 311 313 315 316 317 318 319 322 323 322 324 325 321 319 319 319 321 323 323 322 321 321 321 320 319 318
57 56 49 41 31 21 14 7 1 358 359 5 17 29 38 42 41 37 31 19 9 1 352 344 339 336 333 332 331 330 331 332 332 332 332 332 332 333 333 333 333 333 332 330 328 327 324 321 320 318 317 316 314 312 311 311 312 313 313 314 314 316 319 318 319 322 325 325 326 327 327 324 324 324 321 321 323 324 326 325 324 323 323 323 322 320 320 319
64 51 38 28 20 14 9 6 9 16 28 41 50 52 48 42 35 25 15 6 358 352 346 342 339 337 335 335 335 336 336 336 335 335 336 337 337 336 335 335 335 335 332 329 327 325 323 321 320 319 318 316 315 314 314 315 316 317 317 319 321 322 323 322 324 326 328 329 328 328 328 326 326 327 327 327 328 327 326 325 325 325 325 323 322 321 321 321
55 39 27 18 13 12 16 25 38 50 58 58 54 48 38 30 23 14 6 360 352 347 345 343 342 341 341 340 340 341 340 340 340 340 341 341 340 339 339 337 335 334 331 328 326 324 322 322 321 320 319 318 319 320 321 322 323 323 324 326 324 322 323 324 326 328 330 333 331 331 332 331 332 333 332 330 329 328 327 326 327 327 325 324 323 323 323 323
42 27 19 16 19 29 43 58 65 66 63 55 45 35 25 18 13 6 360 356 351 348 347 347 346 345 344 343 344 343 342 343 343 343 343 342 341 340 339 336 334 332 330 327 326 325 325 324 323 323 323 324 325 326 327 327 326 327 328 324 319 319 321 323 325 330 337 340 337 336 337 336 336 336 334 332 331 329 329 329 329 327 326 325 325 325 325 325
29 22 24 32 44 59 69 73 71 64 54 43 35 27 17 10 7 2 356 354 353 352 350 350 349 347 346 346 346 345 344 345 344 344 343 341 341 340 337 335 333 331 329 327 327 328 328 328 329 330 330 330 331 331 329 326 326 327 326 325 326 329 332 334 338 344 350 350 344 340 339 338 337 337 335 333 332 330 330 330 329 327 327 327 327 326 326 325
29 36 50 62 71 77 77 73 66 54 40 31 26 21 12 5 3 359 356 357 357 356 354 352 350 349 348 347 347 347 346 346 345 345 344 343 343 341 338 335 333 331 329 329 329 331 332 333 334 335 335 335 336 335 331 332 334 334 332 335 339 343 346 348 350 352 350 348 345 342 342 340 338 337 336 334 333 332 331 331 329 329 328 328 327 326 326 325
51 65 75 80 81 79 73 65 54 43 32 25 22 17 10 4 2 1 2 1 360 358 356 353 350 350 349 347 347 347 347 347 347 346 346 344 342 340 337 335 333 332 333 333 334 335 336 337 338 338 339 339 338 337 337 340 341 340 339 343 348 350 353 354 353 350 345 343 344 343 343 341 337 338 337 334 333 332 332 332 331 330 329 328 327 326 325 325
79 84 86 84 80 74 64 49 38 34 28 21 18 14 10 7 6 6 6 4 2 360 357 354 352 351 349 347 347 347 348 348 348 347 345 343 342 340 339 337 336 336 337 338 340 341 341 342 342 342 342 340 339 340 342 343 343 344 345 348 351 353 354 354 351 347 341 340 343 344 344 341 337 338 337 333 332 333 333 332 331 329 328 327 327 325 325 325
90 89 85 80 75 67 53 39 32 29 25 20 16 13 13 12 9 9 8 5 4 1 357 355 353 350 348 347 348 348 349 349 348 347 346 344 344 343 341 340 340 340 341 343 345 346 346 347 347 345 343 342 343 345 346 345 345 347 349 350 352 352 352 351 348 344 341 340 341 343 344 342 338 338 336 333 334 334 333 331 330 329 328 326 326 325 325 326
90 86 81 75 67 52 38 31 30 28 23 20 17 15 14 12 10 10 8 6 4 1 358 356 353 350 348 348 349 349 350 349 349 348 347 346 345 345 344 343 344 344 346 348 350 349 350 352 350 346 344 346 348 348 348 347 346 348 351 351 351 350 350 349 346 343 341 339 339 342 346 344 339 337 335 333 334 334 332 331 329 328 327 326 326 327 327 328
89 82 75 66 53 39 28 26 29 27 23 21 19 16 13 10 10 9 7 5 3 360 358 355 353 350 350 349 349 350 350 349 349 348 348 348 347 347 347 347 348 349 351 353 353 353 353 354 351 347 347 348 348 347 349 349 348 349 350 350 349 346 346 347 346 343 341 339 338 340 346 345 339 336 334 333 334 333 331 330 329 328 328 328 329 329 329 329
84 76 67 55 43 36 31 29 28 26 25 23 17 12 10 9 8 7 5 3 1 359 357 355 353 351 350 350 350 350 349 349 348 348 349 349 349 349 350 350 351 353 355 356 356 355 355 354 350 347 348 350 348 347 350 352 351 349 348 347 346 345 344 345 344 342 340 339 337 337 343 345 339 334 333 332 332 331 330 329 330 330 330 330 329 329 328 329
75 66 57 47 41 40 37 32 28 27 25 20 12 8 7 6 5 4 3 1 359 358 356 354 353 352 351 350 349 349 349 349 349 349 350 350 350 351 352 352 354 356 358 358 357 357 355 353 351 349 349 350 349 348 349 350 350 348 345 344 344 344 342 342 342 341 340 338 336 336 338 342 338 332 330 330 330 330 330 330 331 330 330 329 328 328 328 329
66 59 53 45 42 40 34 31 30 26 22 15 8 6 5 3 3 2 1 360 358 357 356 354 353 352 351 350 349 349 349 349 349 349 350 351 352 353 353 354 356 357 359 359 358 356 354 352 352 351 349 348 348 347 346 345 344 345 345 343 343 342 340 339 339 339 339 337 336 335 334 337 336 331 328 329 330 330 330 330 330 330 330 329 328 328 329 329
59 56 48 43 41 35 30 31 29 23 18 11 5 4 3 3 3 1 1 360 358 357 356 355 354 352 351 350 350 349 349 349 349 349 350 351 352 353 354 355 356 358 359 359 357 355 353 351 350 350 348 345 344 344 344 343 341 342 343 342 341 340 339 338 336 336 337 336 335 332 329 333 335 329 328 329 330 330 330 330 330 330 330 329 328 328 329 330
59 56 47 43 39 32 30 30 24 18 15 7 3 4 4 3 3 2 1 0 359 358 356 355 354 352 351 350 350 349 349 349 348 348 349 350 352 353 354 355 356 357 358 357 356 354 351 350 347 347 347 345 341 340 343 344 340 339 340 340 340 339 337 336 334 333 333 333 333 331 327 331 334 329 327 330 329 330 331 331 331 330 330 329 328 329 331 331
58 53 47 42 34 30 32 27 18 14 12 6 5 6 5 5 4 3 2 1 360 359 357 356 354 353 351 350 349 349 349 348 348 347 348 349 351 352 353 354 354 355 355 355 354 353 350 349 346 343 344 345 342 339 340 343 340 337 336 337 338 337 335 334 332 330 330 330 331 330 326 328 332 329 328 329 329 330 331 331 331 331 330 329 329 330 331 331
57 52 45 37 31 32 31 23 16 15 11 8 8 8 6 6 5 4 3 2 1 360 358 357 355 353 351 350 349 349 349 348 348 347 347 348 349 350 351 351 352 352 352 352 351 350 349 347 344 340 339 341 342 338 336 340 339 335 334 333 334 334 333 332 330 328 327 326 329 329 325 327 330 328 328 330 330 331 332 332 331 331 330 329 329 330 330 330
55 50 41 33 33 33 29 22 18 16 13 11 11 9 8 7 6 6 5 3 3 1 360 359 357 355 352 350 349 349 348 348 348 347 347 347 347 348 348 348 348 349 349 349 348 347 345 343 341 339 334 334 338 337 334 335 336 334 332 330 330 331 330 329 326 325 325 324 327 328 326 327 329 328 329 330 330 330 331 331 331 330 329 328 329 330 330 331
51 47 38 33 35 34 28 24 21 18 16 14 12 11 10 8 8 8 6 5 4 3 2 1 359 356 354 351 350 349 348 348 348 348 347 346 346 345 345 345 345 345 345 345 344 342 341 340 338 337 333 328 331 335 333 332 333 333 329 326 325 326 326 325 324 323 323 323 325 326 326 327 328 327 328 329 329 329 330 330 330 330 328 328 329 330 330 331
49 46 38 35 37 35 30 27 24 21 18 16 14 13 11 11 10 9 8 7 7 6 4 3 1 359 356 353 351 350 349 349 348 348 347 346 345 344 343 343 343 342 341 340 340 338 337 336 334 335 334 326 324 329 330 329 331 331 326 321 321 322 323 323 322 321 321 323 324 324 325 327 327 326 327 328 328 329 330 330 330 329 328 329 330 330 330 331
49 46 40 36 38 36 32 29 26 23 20 18 17 15 14 13 12 11 10 9 8 8 7 5 4 2 359 357 354 351 350 349 348 347 347 346 345 343 342 341 340 339 338 336 336 334 333 333 330 330 334 328 321 324 326 325 327 326 321 318 319 319 320 320 321 321 321 322 323 323 323 325 326 325 326 327 328 329 330 331 331 329 328 329 330 330 330 330
48 46 40 38 39 37 32 30 28 25 23 21 19 18 17 16 14 13 12 11 10 9 8 8 7 5 3 1 358 355 353 350 348 347 346 346 345 344 342 341 338 337 336 333 332 331 330 330 328 327 331 328 320 320 323 323 323 322 319 317 317 316 318 319 320 320 321 321 322 322 323 325 325 325 326 327 328 329 330 331 330 329 328 329 329 329 329 330
48 46 42 38 38 36 33 32 30 27 25 23 21 20 19 18 16 15 14 12 12 10 9 9 8 7 5 4 1 359 356 353 351 349 347 346 346 344 343 341 338 335 334 332 329 328 327 327 326 325 327 327 321 319 321 322 322 321 318 316 315 315 317 318 319 320 321 321 321 322 323 324 324 324 325 326 328 329 330 330 329 328 328 329 329 329 330 331
Height
5797 5797 5797 5797 5797 5797 5797 5797 5796 5796 5796 5796 5795 5795 5795 5795 5795 5795 5795 5795 5794 5794 5794 5794 5795 5795 5796 5796 5796 5796 5796 5796 5797 5797 5797 5797 5797 5797 5797 5797 5797 5797 5797 5797 5797 5797 5797 5797 5796 5796 5796 5796 5796 5796 5796 5796 5795 5795 5795 5796 5795 5793 5791 5791 5791 5790 5789 5788 5787 5788 5789 5789 5786 5784 5784 5783 5783 5783 5782 5781 5780 5779 5778 5776 5775 5773 5773 5772
5797 5797 5797 5797 5797 5797 5797 5797 5797 5797 5797 5797 5797 5796 5796 5796 5796 5796 5796 5795 5795 5795 5795 5795 5795 5795 5795 5796 5796 5796 5796 5796 5796 5796 5796 5796 5796 5796 5796 5796 5795 5795 5795 5795 5795 5795 5795 5795 5795 5795 5795 5795 5795 5794 5794 5794 5793 5793 5793 5793 5791 5790 5790 5789 5789 5787 5785 5783 5783 5785 5787 5786 5783 5781 5781 5779 5779 5779 5778 5778 5777 5775 5773 5772 5771 5769 5768 5767
5797 5797 5797 5797 5797 5797 5797 5797 5797 5797 5797 5797 5797 5797 5797 5796 5796 5796 5796 5795 5795 5795 5795 5795 5795 5795 5795 5795 5795 5795 5795 5796 5796 5796 5795 5795 5795 5795 5795 5794 5794 5794 5794 5794 5794 5793 5793 5793 5793 5793 5793 5793 5793 5792 5792 5792 5791 5791 5791 5790 5788 5787 5787 5786 5785 5784 5782 5779 5779 5781 5783 5783 5780 5778 5778 5776 5775 5775 5774 5773 5773 5771 5769 5768 5767 5765 5764 5763
5797 5797 5797 5797 5797 5797 5797 5796 5796 5796 5796 5796 5796 5796 5796 5796 5796 5796 5796 5795 5795 5795 5795 5795 5795 5794 5794 5794 5794 5795 5794 5794 5794 5794 5794 5794 5793 5793 5793 5793 5793 5793 5792 5792 5792 5792 5791 5791 5791 5791 5790 5791 5791 5790 5789 5789 5789 5788 5787 5786 5784 5784 5784 5783 5781 5780 5778 5776 5776 5778 5778 5778 5777 5775 5774 5772 5771 5771 5770 5769 5768 5767 5766 5765 5763 5762 5760 5759
5797 5797 5797 5797 5797 5797 5796 5796 5796 5796 5796 5796 5796 5795 5795 5795 5795 5795 5795 5795 5795 5795 5795 5794 5794 5794 5794 5794 5794 5794 5794 5793 5793 5792 5792 5792 5792 5791 5791 5791 5791 5790 5790 5790 5790 5789 5789 5789 5789 5789 5788 5788 5788 5788 5787 5786 5786 5784 5783 5783 5781 5781 5780 5779 5776 5775 5774 5774 5775 5775 5774 5774 5773 5772 5771 5769 5767 5766 5765 5763 5762 5762 5761 5761 5759 5758 5756 5754
5798 5797 5797 5797 5797 5796 5796 5796 5795 5795 5795 5795 5795 5795 5795 5795 5795 5794 5794 5794 5794 5794 5794 5794 5793 5793 5793 5793 5793 5793 5793 5792 5792 5791 5791 5790 5790 5790 5789 5789 5788 5788 5788 5787 5787 5787 5786 5786 5786 5786 5785 5784 5784 5785 5785 5784 5783 5781 5779 5779 5779 5778 5776 5774 5772 5771 5771 5771 5772 5772 5770 5769 5769 5768 5767 5766 5764 5762 5760 5758 5757 5756 5756 5755 5755 5753 5752 5750
5798 5798 5797 5797 5796 5796 5796 5795 5795 5795 5794 5794 5794 5794 5794 5794 5794 5793 5793 5793 5793 5793 5793 5793 5792 5792 5792 5793 5792 5792 5791 5791 5791 5790 5789 5789 5789 5788 5788 5787 5786 5786 5785 5785 5784 5784 5783 5783 5783 5782 5782 5781 5780 5780 5780 5781 5780 5778 5775 5774 5775 5774 5772 5769 5767 5768 5769 5768 5768 5767 5766 5765 5765 5764 5763 5762 5760 5758 5756 5754 5753 5751 5750 5750 5749 5748 5747 5745
5798 5798 5797 5797 5796 5796 5795 5795 5794 5794 5794 5794 5793 5793 5793 5792 5792 5792 5792 5791 5791 5791 5791 5791 5791 5791 5791 5791 5791 5790 5790 5790 5789 5789 5788 5787 5787 5786 5785 5785 5784 5783 5783 5782 5781 5781 5780 5780 5779 5779 5778 5777 5777 5776 5776 5776 5776 5775 5772 5770 5771 5770 5768 5766 5763 5765 5766 5765 5764 5762 5761 5762 5762 5761 5759 5757 5756 5754 5753 5751 5749 5747 5746 5744 5743 5742 5741 5740
5798 5797 5797 5797 5796 5796 5795 5794 5794 5794 5793 5793 5793 5792 5792 5791 5791 5790 5790 5790 5789 5789 5789 5789 5789 5789 5790 5790 5789 5789 5789 5788 5787 5787 5786 5785 5785 5784 5783 5782 5782 5781 5780 5779 5779 5778 5777 5777 5776 5776 5775 5774 5774 5773 5772 5771 5771 5771 5769 5766 5766 5765 5763 5761 5759 5761 5762 5759 5759 5758 5758 5758 5758 5757 5755 5753 5751 5749 5748 5747 5745 5743 5741 5740 5738 5737 5735 5734
5797 5797 5797 5796 5796 5795 5794 5794 5794 5793 5793 5792 5792 5792 5791 5790 5790 5789 5789 5788 5788 5788 5788 5788 5788 5788 5788 5788 5787 5787 5786 5786 5785 5785 5784 5783 5782 5782 5781 5780 5779 5778 5778 5777 5776 5775 5774 5774 5773 5772 5772 5771 5771 5770 5769 5768 5766 5766 5765 5762 5762 5761 5759 5758 5756 5757 5758 5755 5754 5754 5754 5754 5754 5753 5751 5748 5746 5745 5743 5742 5740 5739 5737 5736 5734 5732 5730 5728
5797 5797 5796 5796 5795 5795 5794 5794 5793 5793 5792 5792 5791 5791 5790 5790 5789 5789 5788 5788 5787 5787 5787 5787 5786 5786 5786 5785 5785 5784 5784 5783 5783 5782 5781 5780 5779 5779 5778 5777 5776 5776 5775 5774 5773 5772 5771 5771 5770 5769 5768 5768 5767 5767 5766 5765 5764 5763 5760 5757 5757 5757 5755 5754 5754 5754 5753 5751 5751 5750 5749 5750 5749 5749 5747 5743 5741 5740 5738 5736 5735 5734 5733 5731 5730 5728 5726 5723
5797 5796 5796 5795 5794 5794 5793 5793 5793 5792 5792 5791 5791 5790 5789 5789 5788 5788 5787 5787 5786 5786 5786 5785 5784 5784 5783 5783 5782 5782 5781 5781 5780 5779 5778 5777 5776 5775 5775 5774 5773 5772 5771 5770 5770 5769 5768 5768 5767 5766 5765 5765 5765 5764 5763 5762 5760 5759 5756 5753 5753 5753 5751 5750 5750 5750 5748 5747 5747 5746 5744 5744 5745 5744 5743 5739 5737 5735 5733 5731 5730 5728 5727 5725 5724 5722 5720 5718
5796 5795 5795 5794 5794 5793 5793 5793 5792 5792 5791 5791 5790 5790 5789 5789 5788 5787 5787 5786 5785 5785 5784 5783 5783 5782 5781 5781 5780 5779 5779 5778 5777 5776 5775 5775 5774 5773 5772 5771 5770 5770 5769 5768 5767 5766 5765 5764 5764 5763 5763 5763 5762 5761 5759 5758 5756 5755 5752 5750 5750 5749 5748 5747 5746 5745 5744 5743 5743 5741 5739 5739 5739 5738 5737 5735 5732 5731 5728 5727 5725 5723 5721 5719 5718 5716 5714 5712
5795 5794 5794 5794 5793 5793 5793 5792 5792 5791 5791 5790 5790 5789 5789 5788 5787 5787 5786 5785 5784 5784 5783 5782 5781 5780 5779 5779 5778 5777 5777 5776 5776 5775 5774 5773 5772 5771 5771 5770 5769 5768 5767 5765 5764 5763 5763 5762 5761 5761 5760 5760 5759 5756 5755 5754 5753 5753 5749 5746 5747 5746 5744 5743 5742 5741 5741 5740 5739 5737 5734 5734 5733 5733 5731 5730 5728 5726 5724 5722 5720 5718 5716 5714 5711 5709 5707 5705
5794 5793 5793 5793 5793 5792 5792 5792 5791 5791 5790 5790 5789 5788 5788 5787 5786 5786 5785 5784 5783 5783 5782 5781 5780 5779 5778 5778 5777 5776 5775 5775 5774 5773 5773 5772 5771 5770 5769 5768 5767 5766 5765 5764 5762 5761 5760 5760 5759 5758 5757 5756 5755 5753 5751 5750 5750 5750 5746 5742 5743 5742 5739 5739 5738 5737 5736 5736 5735 5732 5730 5728 5728 5727 5725 5724 5723 5721 5719 5717 5715 5712 5710 5708 5705 5703 5701 5699
5793 5793 5792 5793 5792 5792 5791 5791 5790 5790 5789 5789 5788 5787 5787 5786 5785 5784 5783 5782 5782 5781 5780 5779 5779 5778 5777 5777 5776 5775 5775 5774 5773 5772 5772 5771 5770 5769 5768 5767 5765 5764 5763 5762 5760 5759 5758 5758 5756 5755 5755 5754 5752 5750 5748 5748 5746 5746 5743 5740 5738 5737 5736 5735 5734 5733 5731 5731 5730 5728 5725 5723 5723 5722 5720 5718 5717 5716 5714 5711 5709 5707 5704 5702 5700 5697 5695 5693
5792 5792 5792 5792 5792 5791 5791 5790 5790 5789 5788 5788 5787 5786 5785 5784 5783 5783 5782 5781 5780 5779 5779 5778 5777 5777 5777 5776 5776 5775 5774 5773 5772 5772 5771 5770 5769 5768 5767 5765 5764 5763 5761 5760 5758 5757 5756 5755 5754 5753 5752 5751 5750 5748 5746 5745 5743 5742 5740 5737 5735 5733 5732 5731 5731 5730 5728 5726 5725 5723 5721 5719 5718 5716 5715 5714 5712 5710 5708 5706 5704 5701 5699 5697 5694 5692 5689 5687
5792 5792 5792 5791 5791 5790 5790 5789 5789 5788 5787 5786 5786 5785 5784 5783 5782 5781 5781 5780 5779 5778 5778 5777 5777 5776 5776 5775 5775 5774 5773 5772 5771 5770 5769 5768 5767 5766 5765 5763 5762 5761 5759 5758 5756 5755 5753 5752 5751 5750 5749 5748 5747 5746 5744 5742 5740 5739 5737 5735 5732 5730 5728 5727 5727 5726 5725 5724 5722 5719 5717 5716 5714 5712 5710 5709 5707 5705 5703 5700 5698 5696 5693 5691 5688 5686 5684 5681
5792 5791 5791 5791 5790 5790 5789 5788 5788 5787 5786 5785 5784 5783 5783 5782 5781 5780 5780 5779 5778 5778 5777 5777 5776 5776 5775 5774 5774 5773 5772 5771 5770 5769 5768 5766 5765 5764 5763 5761 5760 5759 5757 5756 5754 5753 5751 5750 5748 5747 5746 5745 5744 5743 5741 5739 5738 5736 5734 5732 5729 5727 5725 5723 5723 5722 5721 5720 5718 5715 5713 5711 5710 5707 5705 5703 5701 5699 5697 5695 5692 5690 5688 5685 5683 5680 5678 5675
5791 5791 5790 5790 5789 5789 5788 5787 5786 5786 5785 5784 5783 5782 5782 5781 5780 5780 5779 5779 5778 5777 5777 5776 5776 5775 5774 5774 5773 5772 5771 5770 5768 5767 5766 5765 5764 5762 5761 5759 5758 5757 5756 5754 5752 5751 5749 5748 5746 5745 5743 5742 5741 5739 5738 5736 5735 5733 5730 5729 5727 5724 5721 5720 5720 5719 5717 5715 5713 5711 5709 5707 5705 5703 5701 5699 5696 5694 5691 5689 5687 5684 5682 5680 5677 5675 5672 5670
5790 5790 5790 5789 5788 5788 5787 5786 5785 5785 5784 5783 5783 5782 5782 5781 5780 5779 5779 5778 5777 5776 5776 5775 5775 5774 5773 5773 5772 5771 5770 5769 5767 5766 5765 5763 5762 5761 5760 5758 5757 5756 5754 5752 5751 5749 5747 5746 5744 5742 5741 5739 5738 5736 5735 5733 5731 5729 5727 5725 5723 5720 5717 5715 5716 5715 5713 5711 5709 5707 5705 5702 5701 5698 5695 5694 5691 5689 5687 5685 5682 5680 5677 5675 5672 5670 5667 5665
5790 5789 5789 5788 5788 5787 5786 5785 5784 5784 5783 5783 5783 5782 5781 5781 5780 5779 5778 5778 5777 5776 5775 5775 5774 5773 5772 5772 5771 5770 5768 5767 5766 5765 5764 5762 5761 5760 5758 5757 5755 5754 5752 5750 5749 5747 5745 5743 5741 5739 5738 5736 5735 5733 5731 5730 5728 5726 5724 5722 5719 5717 5714 5710 5711 5711 5708 5706 5704 5703 5700 5698 5696 5693 5690 5688 5686 5684 5682 5680 5678 5676 5673 5671 5668 5665 5663 5660
5789 5789 5788 5788 5787 5786 5785 5784 5784 5783 5783 5782 5782 5782 5781 5781 5780 5779 5778 5777 5776 5775 5775 5774 5773 5773 5772 5771 5770 5769 5767 5766 5765 5764 5763 5761 5760 5758 5756 5755 5753 5751 5750 5748 5746 5744 5742 5741 5738 5736 5734 5732 5731 5729 5728 5726 5724 5722 5720 5718 5715 5713 5710 5706 5706 5706 5703 5701 5700 5698 5696 5693 5691 5688 5685 5683 5681 5679 5677 5675 5673 5671 5669 5666 5664 5661 5658 5655
5788 5788 5787 5787 5786 5785 5784 5784 5783 5783 5782 5782 5782 5781 5781 5780 5780 5779 5778 5777 5776 5775 5774 5774 5773 5772 5771 5770 5769 5768 5767 5765 5764 5763 5761 5759 5758 5756 5754 5752 5750 5748 5747 5744 5742 5740 5739 5737 5735 5733 5731 5729 5727 5725 5724 5722 5720 5718 5716 5714 5711 5708 5706 5703 5701 5701 5698 5696 5695 5693 5692 5689 5687 5684 5681 5679 5677 5674 5672 5670 5667 5665 5663 5660 5657 5655 5652 5649
5788 5787 5786 5786 5785 5785 5784 5784 5783 5783 5782 5782 5782 5781 5781 5780 5779 5778 5777 5776 5775 5774 5774 5773 5772 5771 5770 5769 5768 5767 5766 5765 5763 5761 5759 5758 5756 5754 5752 5750 5748 5746 5744 5742 5740 5738 5736 5734 5732 5730 5728 5727 5725 5722 5720 5718 5716 5714 5711 5709 5707 5704 5701 5699 5697 5696 5694 5692 5690 5689 5687 5686 5684 5681 5679 5676 5674 5671 5669 5666 5663 5660 5657 5654 5651 5649 5645 5642
5787 5786 5786 5785 5785 5784 5784 5783 5783 5783 5783 5782 5782 5781 5780 5779 5778 5778 5777 5776 5775 5774 5774 5773 5772 5771 5770 5769 5768 5766 5765 5763 5762 5760 5758 5756 5754 5752 5750 5748 5746 5744 5742 5740 5737 5735 5733 5732 5730 5728 5725 5723 5721 5719 5716 5714 5712 5710 5707 5705 5703 5700 5698 5695 5692 5691 5690 5688 5686 5684 5683 5682 5681 5678 5675 5673 5671 5668 5666 5663 5660 5657 5654 5651 5648 5645 5642 5638
5786 5785 5785 5785 5785 5784 5784 5784 5783 5783 5783 5782 5781 5780 5780 5779 5778 5777 5776 5776 5775 5774 5774 5773 5772 5771 5770 5768 5767 5765 5764 5762 5760 5758 5756 5754 5752 5750 5748 5745 5743 5741 5739 5737 5735 5733 5731 5729 5726 5724 5722 5719 5717 5715 5712 5710 5708 5706 5703 5701 5699 5697 5695 5692 5690 5688 5686 5684 5682 5680 5678 5677 5676 5674 5670 5668 5667 5664 5662 5659 5656 5653 5650 5647 5644 5641 5638 5634
5785 5785 5785 5785 5785 5784 5784 5784 5783 5783 5782 5782 5781 5780 5779 5779 5778 5777 5777 5776 5775 5775 5774 5773 5771 5770 5768 5767 5766 5764 5762 5760 5758 5756 5754 5752 5750 5748 5745 5743 5741 5739 5737 5734 5732 5730 5728 5726 5723 5721 5718 5716 5713 5711 5708 5706 5704 5701 5699 5697 5695 5693 5692 5690 5688 5685 5683 5681 5679 5677 5674 5673 5673 5671 5667 5665 5663 5660 5657 5655 5652 5649 5646 5642 5639 5635 5632 5628
5785 5785 5785 5785 5785 5785 5784 5784 5783 5783 5782 5781 5781 5780 5779 5779 5778 5778 5777 5776 5775 5774 5773 5772 5771 5769 5767 5766 5764 5762 5761 5759 5757 5754 5752 5750 5748 5746 5743 5741 5739 5737 5734 5732 5730 5727 5725 5723 5720 5718 5715 5712 5710 5707 5705 5702 5700 5698 5696 5694 5692 5691 5689 5688 5686 5684 5681 5679 5677 5675 5672 5670 5670 5668 5664 5661 5659 5656 5653 5651 5648 5644 5641 5637 5634 5630 5627 5623
5786 5786 5786 5785 5785 5785 5784 5784 5783 5782 5782 5781 5781 5780 5780 5779 5778 5778 5777 5776 5775 5774 5773 5771 5770 5768 5766 5764 5763 5761 5759 5757 5755 5753 5751 5748 5746 5744 5742 5739 5737 5735 5732 5730 5727 5725 5722 5719 5717 5714 5712 5709 5706 5704 5701 5699 5698 5696 5694 5693 5691 5689 5688 5686 5684 5682 5680 5677 5675 5673 5670 5667 5665 5664 5661 5659 5656 5653 5650 5647 5643 5640 5636 5632 5629 5625 5621 5617
5786 5786 5786 5786 5785 5785 5784 5784 5783 5783 5782 5782 5781 5781 5780 5780 5779 5778 5777 5776 5775 5773 5772 5770 5769 5767 5765 5763 5761 5759 5757 5755 5752 5750 5748 5746 5744 5741 5739 5737 5735 5733 5730 5728 5725 5722 5719 5716 5713 5710 5708 5705 5702 5700 5698 5696 5695 5694 5692 5691 5690 5688 5686 5684 5682 5680 5678 5675 5672 5670 5668 5665 5662 5660 5658 5655 5652 5649 5646 5642 5639 5635 5631 5627 5623 5619 5615 5611
5787 5786 5786 5786 5785 5785 5784 5784 5784 5783 5783 5782 5782 5781 5780 5780 5779 5778 5777 5776 5774 5773 5771 5769 5768 5766 5764 5762 5760 5758 5756 5753 5751 5749 5747 5744 5742 5740 5738 5735 5733 5731 5728 5725 5722 5719 5716 5713 5710 5707 5704 5701 5699 5697 5696 5694 5693 5692 5691 5690 5688 5686 5684 5682 5680 5678 5675 5673 5670 5667 5666 5663 5660 5657 5654 5650 5647 5644 5641 5637 5634 5630 5626 5622 5618 5614 5610 5605
5787 5786 5786 5786 5785 5785 5785 5784 5784 5784 5783 5783 5782 5781 5781 5780 5779 5778 5776 5775 5773 5772 5770 5769 5767 5765 5763 5761 5758 5756 5754 5752 5750 5748 5746 5744 5741 5739 5737 5734 5731 5728 5725 5722 5718 5715 5711 5709 5706 5703 5701 5699 5698 5696 5695 5693 5692 5690 5688 5687 5685 5682 5679 5677 5675 5674 5673 5671 5668 5665 5663 5660 5657 5654 5650 5646 5643 5639 5636 5633 5630 5626 5622 5617 5613 5608 5604 5600
5787 5787 5786 5786 5786 5786 5785 5785 5785 5784 5784 5783 5783 5782 5781 5780 5779 5778 5776 5775 5773 5771 5769 5767 5766 5763 5761 5759 5757 5755 5753 5751 5748 5746 5744 5741 5739 5737 5734 5732 5729 5725 5722 5718 5715 5712 5708 5705 5703 5701 5699 5697 5696 5694 5693 5691 5689 5686 5684 5682 5679 5677 5675 5673 5671 5670 5669 5668 5665 5662 5659 5656 5653 5650 5646 5643 5639 5635 5632 5629 5625 5621 5617 5612 5608 5603 5599 5594
5787 5787 5787 5787 5787 5787 5786 5786 5786 5785 5784 5784 5783 5782 5781 5780 5779 5777 5776 5774 5772 5771 5769 5767 5764 5762 5760 5758 5756 5754 5752 5750 5747 5745 5742 5740 5738 5735 5732 5729 5726 5722 5718 5715 5712 5709 5706 5703 5701 5699 5697 5695 5693 5692 5690 5687 5685 5683 5680 5678 5676 5674 5673 5671 5669 5667 5665 5663 5662 5659 5656 5652 5649 5646 5643 5639 5636 5633 5629 5625 5620 5616 5612 5608 5603 5598 5594 5589
5788 5788 5788 5788 5788 5787 5787 5787 5786 5785 5785 5784 5783 5782 5781 5780 5778 5777 5775 5773 5771 5769 5767 5765 5763 5761 5759 5757 5755 5753 5751 5748 5746 5744 5741 5739 5737 5734 5731 5727 5723 5719 5716 5712 5709 5706 5704 5701 5699 5697 5695 5693 5691 5689 5687 5685 5683 5681 5678 5676 5674 5673 5671 5669 5667 5665 5662 5659 5658 5656 5653 5649 5645 5643 5640 5636 5633 5629 5625 5620 5616 5612 5608 5603 5599 5594 5589 5584
5788 5789 5789 5789 5789 5788 5788 5787 5787 5786 5785 5784 5783 5782 5781 5779 5778 5776 5774 5773 5770 5768 5766 5764 5762 5760 5758 5756 5753 5751 5749 5747 5745 5742 5740 5737 5734 5731 5728 5724 5720 5717 5713 5710 5707 5704 5702 5699 5697 5696 5694 5692 5690 5688 5686 5683 5681 5679 5677 5674 5672 5670 5669 5667 5665 5662 5659 5656 5654 5653 5650 5645 5641 5638 5635 5632 5628 5625 5621 5617 5612 5608 5603 5599 5595 5589 5584 5578
5789 5790 5790 5789 5789 5789 5788 5788 5787 5786 5785 5784 5783 5782 5780 5779 5777 5776 5774 5772 5770 5768 5765 5763 5761 5759 5757 5754 5752 5750 5747 5745 5743 5740 5738 5735 5732 5729 5725 5722 5718 5714 5711 5708 5705 5703 5700 5698 5696 5694 5692 5690 5688 5686 5684 5682 5680 5678 5676 5673 5670 5668 5666 5664 5662 5659 5655 5652 5649 5648 5647 5642 5637 5634 5630 5627 5623 5620 5616 5612 5608 5603 5599 5593 5588 5582 5576 5570
5790 5791 5790 5790 5790 5789 5789 5788 5787 5786 5785 5784 5783 5781 5780 5779 5777 5775 5773 5771 5769 5767 5764 5762 5760 5758 5755 5753 5751 5748 5746 5744 5741 5739 5736 5733 5730 5727 5723 5720 5716 5713 5709 5706 5704 5701 5699 5697 5695 5693 5691 5689 5687 5685 5684 5682 5679 5676 5673 5671 5668 5666 5664 5662 5660 5656 5652 5649 5645 5643 5642 5639 5634 5630 5626 5622 5619 5615 5610 5606 5602 5597 5592 5586 5580 5574 5569 5564
5791 5791 5791 5791 5790 5790 5789 5788 5787 5786 5785 5784 5783 5781 5780 5778 5776 5774 5772 5770 5768 5766 5764 5761 5759 5756 5754 5752 5750 5747 5745 5743 5740 5737 5735 5732 5729 5725 5722 5718 5715 5711 5708 5705 5702 5700 5697 5695 5693 5691 5690 5688 5686 5684 5682 5680 5677 5674 5671 5669 5667 5664 5661 5659 5657 5654 5651 5647 5643 5639 5637 5636 5631 5625 5621 5618 5614 5611 5606 5601 5595 5590 5584 5579 5574 5569 5564 5559
5792 5792 5792 5791 5790 5790 5789 5788 5787 5786 5785 5784 5783 5781 5780 5778 5776 5774 5772 5770 5767 5765 5763 5760 5758 5756 5753 5751 5749 5746 5744 5741 5739 5736 5733 5731 5727 5724 5721 5717 5714 5710 5707 5704 5701 5698 5696 5694 5692 5690 5688 5686 5684 5682 5680 5678 5675 5673 5670 5667 5665 5662 5659 5656 5654 5651 5648 5644 5640 5636 5633 5631 5627 5622 5618 5614 5610 5605 5600 5595 5590 5585 5579 5574 5569 5564 5558 5553
5793 5793 5792 5792 5791 5790 5789 5788 5787 5786 5785 5784 5783 5781 5779 5777 5775 5773 5771 5769 5767 5764 5762 5759 5757 5755 5752 5750 5748 5745 5743 5740 5738 5735 5732 5729 5726 5723 5720 5716 5713 5709 5706 5703 5700 5697 5695 5693 5691 5689 5686 5684 5682 5680 5678 5676 5673 5671 5669 5665 5663 5660 5657 5653 5650 5648 5645 5641 5636 5631 5628 5626 5623 5617 5613 5610 5605 5600 5595 5591 5586 5580 5575 5569 5564 5558 5553 5547
5794 5793 5792 5792 5791 5790 5789 5788 5787 5786 5785 5784 5782 5781 5779 5776 5774 5772 5770 5768 5766 5763 5761 5758 5756 5754 5751 5749 5747 5744 5742 5739 5736 5734 5731 5728 5725 5722 5719 5715 5712 5708 5705 5702 5699 5697 5694 5692 5689 5687 5685 5683 5681 5679 5676 5674 5671 5668 5666 5664 5661 5658 5654 5651 5647 5643 5641 5638 5633 5628 5623 5622 5618 5612 5608 5604 5600 5595 5590 5585 5581 5575 5570 5564 5558 5552 5546 5540
5794 5793 5793 5792 5791 5791 5789 5788 5787 5786 5785 5784 5782 5780 5778 5776 5774 5772 5770 5767 5765 5763 5760 5758 5755 5753 5750 5748 5746 5743 5740 5738 5735 5733 5730 5727 5724 5721 5718 5714 5711 5707 5704 5701 5699 5696 5693 5690 5688 5686 5684 5681 5679 5677 5674 5672 5669 5666 5663 5661 5658 5655 5652 5648 5644 5640 5637 5635 5632 5625 5619 5617 5614 5607 5603 5599 5594 5589 5585 5579 5575 5570 5564 5558 5552 5546 5540 5532
5794 5794 5793 5792 5792 5791 5789 5788 5788 5786 5785 5783 5781 5779 5777 5775 5773 5771 5769 5767 5765 5762 5759 5757 5754 5752 5749 5747 5744 5742 5739 5737 5734 5731 5729 5726 5723 5720 5716 5713 5710 5707 5704 5700 5698 5695 5692 5689 5686 5684 5681 5679 5677 5674 5671 5670 5667 5663 5661 5658 5655 5653 5649 5645 5641 5637 5633 5630 5628 5623 5616 5614 5611 5603 5597 5594 5588 5584 5579 5574 5569 5564 5558 5552 5546 5540 5534 5528
5795 5794 5793 5793 5792 5790 5789 5789 5787 5786 5784 5782 5780 5779 5777 5775 5773 5771 5769 5766 5764 5761 5759 5756 5753 5751 5748 5746 5743 5741 5738 5736 5733 5730 5727 5724 5721 5718 5715 5712 5709 5706 5703 5699 5697 5694 5691 5688 5685 5682 5679 5677 5675 5672 5669 5667 5664 5661 5658 5654 5652 5649 5646 5642 5638 5634 5629 5625 5624 5620 5612 5609 5607 5600 5593 5589 5583 5578 5573 5568 5563 5557 5552 5546 5541 5536 5530 5524
5795 5794 5793 5793 5791 5790 5789 5788 5787 5785 5784 5782 5780 5778 5776 5774 5772 5770 5768 5766 5763 5761 5758 5755 5752 5750 5747 5745 5742 5740 5737 5734 5732 5729 5726 5723 5720 5717 5714 5711 5708 5705 5702 5698 5695 5693 5690 5687 5684 5681 5678 5675 5673 5671 5667 5664 5662 5659 5655 5652 5649 5646 5643 5640 5635 5631 5626 5621 5618 5615 5609 5603 5600 5595 5590 5585 5579 5574 5569 5563 5558 5553 5547 5541 5536 5531 5525 5518
5795 5794 5794 5793 5792 5790 5789 5788 5786 5785 5783 5781 5780 5778 5776 5774 5772 5770 5767 5765 5762 5760 5757 5754 5752 5749 5747 5744 5741 5739 5736 5733 5730 5727 5724 5721 5718 5715 5712 5709 5706 5703 5700 5697 5694 5691 5688 5686 5683 5680 5677 5673 5670 5668 5665 5662 5660 5657 5653 5649 5646 5644 5641 5637 5633 5628 5623 5617 5614 5610 5606 5600 5595 5590 5586 5582 5576 5571 5565 5559 5554 5549 5543 5537 5531 5525 5519 5513
5795 5795 5794 5793 5792 5790 5789 5788 5786 5785 5783 5781 5779 5777 5775 5773 5771 5769 5767 5765 5762 5759 5756 5754 5751 5748 5746 5743 5740 5737 5735 5732 5729 5726 5723 5720 5717 5714 5711 5708 5704 5701 5698 5695 5693 5690 5687 5684 5681 5679 5676 5672 5668 5665 5663 5660 5657 5654 5651 5647 5643 5641 5638 5634 5630 5625 5619 5614 5610 5605 5601 5598 5592 5585 5581 5577 5571 5566 5561 5555 5549 5543 5537 5531 5526 5519 5513 5507
5796 5795 5794 5793 5792 5790 5789 5788 5786 5784 5782 5781 5779 5777 5775 5773 5771 5769 5767 5764 5762 5759 5756 5753 5750 5748 5745 5742 5739 5736 5733 5731 5728 5725 5722 5719 5715 5712 5709 5706 5702 5699 5696 5693 5691 5687 5685 5682 5679 5676 5675 5671 5666 5663 5660 5657 5654 5652 5649 5644 5640 5636 5633 5630 5626 5621 5615 5610 5606 5601 5596 5593 5589 5581 5575 5571 5566 5561 5556 5550 5544 5537 5531 5525 5520 5514 5508 5502
5796 5795 5794 5793 5792 5790 5789 5787 5786 5784 5782 5781 5779 5777 5775 5773 5771 5769 5766 5764 5761 5758 5756 5753 5750 5747 5744 5741 5738 5735 5732 5729 5726 5723 5720 5717 5714 5710 5707 5704 5700 5697 5694 5691 5688 5685 5682 5680 5676 5673 5672 5669 5664 5661 5658 5655 5652 5649 5645 5641 5637 5632 5629 5626 5621 5617 5611 5605 5601 5596 5591 5587 5583 5577 5571 5566 5560 5555 5551 5545 5539 5533 5527 5520 5515 5509 5503 5497
5796 5795 5795 5793 5792 5790 5789 5787 5786 5784 5782 5780 5779 5777 5775 5773 5770 5768 5766 5763 5761 5758 5755 5753 5750 5747 5743 5740 5737 5734 5731 5728 5725 5722 5718 5715 5712 5709 5705 5702 5698 5695 5692 5689 5686 5683 5679 5677 5674 5670 5668 5666 5662 5658 5655 5652 5649 5645 5642 5637 5633 5629 5625 5621 5617 5613 5607 5601 5595 5591 5587 5582 5577 5572 5567 5562 5556 5550 5546 5540 5534 5528 5523 5517 5510 5503 5497 5491